Regional Weather Roundup
Issued by NWS Albany, NY

Current Version | Previous Version | Graphics & Text | Print | Product List | Glossary On
Versions: 1 2 3 4 5 6 7 8 9 10 11 12 13 14 15 16 17 18 19 20 21 22 23 24 25 26 27 28 29 30 31 32 33 34 35 36 37 38 39 40 41 42 43 44 45 46 47 48 49 50
000
ASUS41 KALY 080310
RWRALY

NEW YORK STATE HOURLY WEATHER ROUNDUP
NATIONAL WEATHER SERVICE ALBANY NY
1000 PM EST SUN MAR 07 2021

NOTE: "FAIR" INDICATES FEW OR NO CLOUDS BELOW 12,000 FEET WITH NO
SIGNIFICANT WEATHER AND/OR NO OBSTRUCTIONS TO VISIBILITY.

NYZ032-033-038>043-046>054-057>066-NYZ062>081-082-084-080400-
EAST


CITY           SKY/WX    TMP DP  RH WIND       PRES   REMARKS
ALBANY         CLEAR     21   5  50 W7        30.41R WCI  12
GLENS FALLS    CLEAR     20  10  65 CALM      30.39R
POUGHKEEPSIE   CLEAR     28  11  48 N3        30.39R
MONTGOMERY     CLEAR     27   9  46 NW12G20   30.36S WCI  17
WHITE PLAINS   CLEAR     29  10  45 N9        30.35R WCI  20
ISLIP          PTCLDY    31  15  52 N9        30.36R WCI  23
NEW YORK CITY  CLEAR     35  13  40 NW15      30.38R WCI  25
CENTRAL PARK   CLEAR     34  11  38 VRB7      30.40R WCI  28
$$

NYZ005>009-017-018-044>046-055-056-080400-
CENTRAL


CITY           SKY/WX    TMP DP  RH WIND       PRES   REMARKS
FULTON         CLEAR     13   7  77 S3        30.43F
SYRACUSE       CLEAR     20   7  57 CALM      30.44S
ROME           CLEAR     12   2  64 CALM      30.44F
ELMIRA         CLEAR     22   6  50 E3        30.41S
BINGHAMTON     CLEAR     17   3  54 N7        30.34S WCI   8
MONTICELLO     CLEAR     20   6  55 NW5       30.34S WCI  13
$$

NYZ026>034-041>043-087-080400-
NORTH


CITY           SKY/WX    TMP DP  RH WIND       PRES   REMARKS
WATERTOWN      CLEAR     16   7  67 CALM      30.43S
FORT DRUM      NOT AVBL
OGDENSBURG     FAIR       3  -2  78 CALM      30.41S
MASSENA        CLEAR      4  -4  69 CALM      30.45R
SARANAC LAKE   CLEAR      0  -4  83 CALM      30.30F
PLATTSBURGH    CLEAR     20   4  50 SW3       30.40F
$$

NYZ001>004-010>016-019>021-085-080400-
WEST


CITY           SKY/WX    TMP DP  RH WIND       PRES   REMARKS
NIAGARA FALLS  CLEAR     20  13  74 W5        30.42F WCI  13
BUFFALO        PTCLDY    25  17  72 SW3       30.42F
DUNKIRK        CLEAR     20  14  77 S5        30.44F WCI  13
JAMESTOWN      CLEAR    N/A N/A N/A MISG      30.37S
WELLSVILLE     CLEAR     15   6  67 NW7       30.34F WCI   5
ROCHESTER      PTCLDY    19  12  74 CALM      30.44S
PENN YAN       CLEAR     18  13  80 CALM      30.41S
$$

             KEY
       WCI = WIND CHILL INDEX
       VSB = VISIBILITY
       HX  = HEAT INDEX
$$



USA.gov is the U.S. government's official web portal to all federal, state and local government web resources and services.